User: anonymous   Login
Location: Morehead State University
(38.1872°N, 83.4339°W)
Time: 06:59:54
(UTC-04:00)
Language:

Okean 2 - Orbit

View from above orbital plane
View from above orbital plane
View from above satellite
View from above satellite

Ground track
Ground track

The orbit data is extracted from the following two-line orbital elements,

1 20510U 90018A   15115.10953456  .00002895  00000-0  24532-3 0  9995
2 20510 082.5182 203.7188 0014358 107.8738 323.1808 14.97574764364035
Epoch (UTC): 25 April 2015 02:37:43
Eccentricity: 0.0014358
inclination: 82.5182°
perigee height: 564 km
apogee height: 584 km
right ascension of ascending node: 203.7188°
argument of perigee: 107.8738°
revolutions per day: 14.97574764
mean anomaly at epoch: 323.1808°
orbit number at epoch: 36403

The dashed part of the orbit path shows where the satellite is in the earth's shadow,  

DLR